User: anonymous   Login
Location: Bruderhein
(53.8035°N, 112.9265°W)
Time: 14:41:13
(UTC+00:00)
Language:

MOZHAYETS 4 - Orbit

View from above orbital plane
View from above orbital plane
View from above satellite
View from above satellite

Ground track
Ground track

The orbit data is extracted from the following two-line orbital elements,

1 27939U 03042A   23091.10833955  .00002548  00000-0  45152-3 0  9997
2 27939  98.2290 237.5559 0012887  25.0577 335.1244 14.68132037 43239
Epoch (UTC): 01 April 2023 02:36:00
Eccentricity: 0.0012887
inclination: 98.2290°
perigee height: 658 km
apogee height: 676 km
right ascension of ascending node: 237.5559°
argument of perigee: 25.0577°
revolutions per day: 14.68132037
mean anomaly at epoch: 335.1244°
orbit number at epoch: 4323

The dashed part of the orbit path shows where the satellite is in the earth's shadow,  

DLR